全球星 M003星 (GLOBALSTAR M003)

导读

GLOBALSTAR M003是美国全球星(GlobalStar)系统的第一代低轨移动通信卫星,于1998年2月14日发射,是全球星系统首次一箭四星发射任务中的卫星。该卫星采用劳拉公司LS-400平台,三轴稳定设计,发射质量约450千克,运行在高度1414千米、倾角52°的轨道上,设计寿命7.5年。作为全球星星座的组成部分,它为全球提供语音、数据、短信息等移动通信服务,支撑起全球范围内无缝隙卫星移动通信覆盖。

Basic Information
目录编号:
25165
目录名称:
GLOBALSTAR M003
国际标识:
1998-008D
轨道中心:
EARTH
卫星名称:
全球星 M003星
卫星全名:
全球星 M003星 (GLOBALSTAR M003)
卫星状态:
在轨 (已飞行10391 天)
发射日期:
1998-02-14 UTC
国别 :
(GLOB)
星等 :
--
Orbit Information
数据来源 国际轨道数据 AOE轨道数据
星历时间 2026-07-28T06:44:16+0800
16小时前
查看轨道信息
2026-07-25T16:00:00+0800
3天前
查看轨道信息
半长轴 8005.712km 8005.717km
偏心率 0.0008621 0.0009509
轨道倾角 51.979° 51.978°
近地点辐角 31.379° 25.551°
升交点赤经 124.589° 131.831°
平近点角 49.581° 164.403°
近地点 1620.673km 1619.967km
远地点 1634.477km 1635.193km
周期 118.812分钟 118.812分钟
每日圈数 12.120007 12.119996
Detailed Information
固有亮度:
5
最大亮度:
7.9
平衡模式:
三轴稳定
覆盖范围:
全球
运营商:
全球星公司
运营商所在国:
美国
使用方式:
暂无
Satellite Introduction
全球星星座由48颗卫星加8颗备份星组成。这些卫星分布在8个倾角为52度的圆形轨道平面上,每个轨道平面6颗卫星,另有1 颗备用星。轨道高度约为1414km,传输时延和处理时延小于300ms,整个系统的覆盖区为南北纬70度以内的地区。该卫星仍在工作。
2D Orbit Map
3D Orbit Map
Orbit Altitude Analysis Chart
Orbit Inclination Analysis Chart
Orbit Comprehensive Analysis Chart
View Comprehensive Chart